This is the latest recevied weather packets stored in our database for station/object WB0OCV. If no packets are shown the sender has not sent any weather packets the latest 10 day(s).
| Time | Temp. | Humidity | Pressure | Rain* | Wind** | Luminosity | Snow |
|---|---|---|---|---|---|---|---|
| 1778155921 | 8.89° C | 97% | 1010.2 hPa | 1.27 mm | - | 45 W/m² | - |
| 1778155617 | 8.89° C | 97% | 1010.1 hPa | 0 mm | - | 50 W/m² | - |
| 1778155315 | 8.89° C | 97% | 1010.3 hPa | 0 mm | - | 47 W/m² | - |
| 1778155011 | 9.44° C | 97% | 1010.5 hPa | 0 mm | - | 26 W/m² | - |
| 1778154706 | 9.44° C | 97% | 1010.5 hPa | 0 mm | - | 45 W/m² | - |
| 1778154402 | 9.44° C | 98% | 1010.2 hPa | 0 mm | - | 59 W/m² | - |
| 1778154100 | 9.44° C | 98% | 1010.2 hPa | 0 mm | - | 75 W/m² | - |
| 1778153797 | 9.44° C | 98% | 1010.4 hPa | 0 mm | - | 42 W/m² | - |
| 1778153494 | 9.44° C | 98% | 1010.5 hPa | 1.78 mm | - | 38 W/m² | - |
| 1778153192 | 10° C | 98% | 1010.7 hPa | 0 mm | - | 19 W/m² | - |
| 1778152888 | 10° C | 99% | 1010.7 hPa | 0 mm | - | 17 W/m² | - |
| 1778152586 | 10° C | 98% | 1010.4 hPa | 0 mm | - | 17 W/m² | - |
| 1778152282 | 10° C | 98% | 1009.8 hPa | 0 mm | - | 22 W/m² | - |
| 1778151978 | 10° C | 98% | 1009.5 hPa | 0 mm | - | 31 W/m² | - |
| 1778151675 | 10° C | 99% | 1009.3 hPa | 1.27 mm | - | 34 W/m² | - |
| 1778151372 | 10.56° C | 99% | 1009.3 hPa | 1.27 mm | - | 18 W/m² | - |
| 1778151068 | 10.56° C | 99% | 1009.4 hPa | 1.78 mm | - | 19 W/m² | - |
| 1778150766 | 10.56° C | 99% | 1009.5 hPa | 3.05 mm | - | 12 W/m² | - |
| 1778150462 | 10.56° C | 99% | 1009.4 hPa | 1.27 mm | - | 13 W/m² | - |
| 1778150158 | 10.56° C | 99% | 1009.6 hPa | 0 mm | - | 5 W/m² | - |
| 1778149855 | 10.56° C | 99% | 1009.2 hPa | 0 mm | - | 11 W/m² | - |
| 1778149551 | 10.56° C | 99% | 1009.2 hPa | 0 mm | - | 10 W/m² | - |
| 1778149247 | 11.11° C | 99% | 1009.5 hPa | 0 mm | - | 7 W/m² | - |
| 1778148943 | 11.11° C | 99% | 1009.1 hPa | 0 mm | - | 6 W/m² | - |
| 1778148639 | 11.11° C | 99% | 1009 hPa | 1.78 mm | - | 4 W/m² | - |
* Rain latest hour (hover to see other rain measurements)
** Current wind speed in m/s (hover to see current wind gust speed)